Showing default

LEMUR-2 CLARA, 68483

Orbit data source: Space-Track

LEMUR-2 CLARA, 68483 is a payload satellite owned by Spire (LU) in SSO that was launched on Mon, 30 Mar 2026 UTC via an FALCON 9 launch vehicle from the Air Force Western Test Range (AFWTR). Payload-class satellites include a variety of spacecraft equipped with specific instruments for various scientific and technological missions. These include communications satellites like Starlink; space stations such as the ISS; scientific satellites like the Hubble; Earth observation satellites from companies like Planet Labs, Umbra, and HawkEye 360; GPS; miniature CubeSats for education and research; and military/defense satellites.

Loading next visibility...
Identifier
68483, 2026-067BV
Orbit
SSO
Country
Flag of LULU / LUXE
Related business
Manufacturer
Spire/Glasgow
Mission
Operational Commercial Com/MetRO
Bus & Motor
CUBESAT 3U, Unknown motor
Mass
7.6 kg wet, 7.6 kg dry
Launch date (UTC)
2026-03-30 (4 months ago)
Launch vehicle
FALCON 9
Launch site
Air Force Western Test Range (AFWTR)
Object type
Payload
Rocket body
Debris
Shape & HBR
Box + 2 Pan, 0.2 m
Radar Cross Section
0.063 m², Medium (>0.1 m² and < 1m²)

Expand to show TLE details & history
Last TLE update: 6 hours ago

TLE from 6 hours ago
0 LEMUR-2 CLARA
1 68483U 26067BV  26220.15659985  .00001827  00000-0  18096-3 0  9995
2 68483  97.7671 177.8642 0004759 106.8005 253.3737 14.93044967 19487
Epoch: 2026-08-08T03:45Z
TLE epoch observation values (Epoch: 2026-08-08T03:45:30.227Z)
Latitude
0.00002°
Longitude
164.81627°
Altitude
592.441 km
Speed
7.563 km/s
True Right ascension
11h 51m 27s
True Declination
0° 00' 00"
Sunlit
Object was in daylight at epoch
Visualization orbit readout
Latitude
Unknown
Longitude
Unknown
Altitude
Unknown
Speed
Unknown
Apparent Right ascension
Unknown
Apparent Declination
Unknown
Sunlit
N/A
Visualization observer readout
Local Sidereal Time
00:05:15
Azimuth
Unknown
Elevation
Unknown
Doppler factor
Unknown
Orbital elements
Apogee altitude
588.779 km
Perigee altitude
582.151 km
Semi-major axis
6,963.602 km
Eccentricity
0.00048
Inclination
97.7671°
RAAN
177.8642°
Arg. of periapsis
106.8005°
True anomaly
253.32145°
Mean anomaly
253.3737°
Eccentric anomaly
253.34758°
Mean motion
3.73501 °/min
Orbital period
96.39 mins
BSTAR
0.00018096
Loading maneuver chart data...
Computing Atmospheric mass density...
Loading historical data...
Loading historical data...
Loading historical data...
Loading historical data...
Loading historical data...
Loading historical data...
Loading historical data...

Documentation

Showing up to 5 results
|